Location: Poughquag
(41.6090°N, 73.6820°W)
Time: 18:26:04
(UTC-04:00)

JY1SAT - Pass Details

Date: 16 September 2024
Orbit: 527 x 537 km, 97.5° (Epoch: 10 October)

Event Time Altitude Azimuth Distance (km) Brightness Sun altitude
Exits shadow 22:34:33 11° 325° (NW) 1,751 ? -36.7°
Drops below altitude 10° 22:34:40 10° 326° (NW) 1,792 ? -36.7°
Sets 22:37:00 0° 337° (NNW) 2,691 ? -37.0°
